Location: Newark
(42.7133°N, 87.7910°W)
Time: 05:13:51
(UTC+00:00)

SR - Pass Details

Date: 28 October 2019
Orbit: 574 x 882 km, 66.7° (Epoch: 11 November)

Event Time Altitude Azimuth Distance (km) Brightness Sun altitude
Exits shadow 08:52:23 13° 9° (N) 2,313 ? -38.3°
Maximum altitude 08:54:50 16° 36° (NE) 2,115 ? -37.9°
Drops below altitude 10° 08:58:29 10° 74° (ENE) 2,541 ? -37.2°
Sets 09:01:59 0° 95° (E) 3,462 ? -36.6°
